Simultaneous Nadir Overpasses (SNOs) Predictions

Prediction of SNOs between GOES-16 and NOAA-20 Satellite Orbit:

Table of predicted SNOs for the next 14.0 days since TLE Epoch: 11/21/2025
Index Date Time (GOES-16) GOES-16 Lat,Lon NOAA-20 Lat,Lon Distance(km) Time Diff (sec)
1 11/21/2025 20:17:42 -0.01,-104.66 0.41,-102.87 205.50 80
2 11/23/2025 08:39:32 0.01,-104.68 0.77,-108.14 394.38 80
3 11/24/2025 08:18:09 0.01,-104.67 -0.20,-103.60 120.66 80
4 11/25/2025 20:40:08 -0.01,-104.64 -0.99,-108.91 487.45 80
5 11/26/2025 20:24:06 -0.00,-104.64 0.05,-104.39 28.10 80
6 11/29/2025 08:27:14 0.00,-104.66 0.09,-105.15 55.44 80
7 11/30/2025 08:05:50 -0.00,-104.65 -0.89,-100.61 459.84 80
8 12/01/2025 20:27:49 -0.01,-104.62 -0.30,-105.92 148.29 80
9 12/02/2025 20:11:46 -0.01,-104.62 0.68,-101.39 367.26 80
10 12/04/2025 08:33:36 0.02,-104.64 0.48,-106.67 231.54 80
11 12/05/2025 08:12:14 0.02,-104.63 -0.56,-102.15 283.22 80
